Powrót do katalogu

ONEWEB-0604

AktywnyŁącznośćPO
NORAD 54668·PAYLOAD·🇬🇧 United Kingdom

Wystrzelony Dec 8, 2022 z Cape Canaveral Space Force Station

Loading…

Następne Przeloty (najbliższe 24 godziny)

TLE

ŚwieżeSource: CelesTrak SupGP

Epoka: Sep 14, 2026, 15:00 UTC

1 54668C 22166AC  26257.62518935 -.00000616  00000+0 -14929-2 0  2575
2 54668  87.9271 226.1747 0002095  81.3301 313.7708 13.21824966    18

Śledź ONEWEB-0604 w czasie rzeczywistym z AllMySat

Download on the App Store